Location: Fort Wayne
(41.1310°N, 85.1290°W)
Time: 03:38:16
(UTC-04:00)

IDEFIX/ARIANE 42P - Visible Passes

Search period start: 26 May 2015 00:00
Search period end: 05 June 2015 00:00
Orbit: 786 x 802 km, 98.3° (Epoch: 25 May)

Date Brightness Start Highest point End Pass type
(mag) Time Alt. Az. Time Alt. Az. Time Alt. Az.
26 May 4.8 21:40:48 10° SSW 21:45:05 25° W 21:49:17 10° NW visible
29 May 5.1 21:56:32 10° SW 22:00:07 18° W 22:03:32 10° NW visible
01 Jun 5.3 22:12:49 10° WSW 22:15:13 13° W 22:17:18 10° WNW visible
02 Jun 4.9 21:42:21 10° SW 21:46:33 24° W 21:50:40 10° NW visible
